Location: Unspecified
(0.0000°N, 0.0000°E)
Time: 20:04:30
(UTC+00:00)

SR - Pass Details

Date: 23 June 2025
Orbit: 572 x 853 km, 66.7° (Epoch: 13 July)

Event Time Altitude Azimuth Distance (km) Brightness Sun altitude
Rises 01:33:22 0° 1° (N) 2,887 - -57.8°
Reaches altitude 10° 01:36:02 10° 15° (NNE) 1,945 - -57.3°
Maximum altitude 01:39:31 24° 69° (ENE) 1,243 - -56.7°
Drops below altitude 10° 01:42:54 10° 123° (ESE) 1,884 - -56.1°
Sets 01:45:25 0° 138° (SE) 2,773 - -55.7°
